Watonga, OK

7:02 PM CDT on May 29, 2017 (GMT -0500)
Watonga

Weather History for KJWG - January, 2014

Change the Weather History Date:

Wednesday, January 1, 2014

  Actual Average Record
Temperature  
Mean Temperature 32 °F -  
Max Temperature 45 °F 44 °F 71 °F (2006)
Min Temperature 19 °F 24 °F 4 °F (1979)
Degree Days  
Heating Degree Days 33    
Moisture  
Dew Point 27 °F    
Average Humidity 80    
Maximum Humidity 94    
Minimum Humidity 66    
Precipitation  
Precipitation 0.00 in - - ()
Sea Level Pressure  
Sea Level Pressure 30.04 in    
Wind  
Wind Speed 13 mph (NW)    
Max Wind Speed 29 mph    
Max Gust Speed 34 mph    
Visibility 10 miles    
Events      
Averages and records for this station are not official NWS values.
T = Trace of Precipitation, MM = Missing Value Source: NWS Daily Summary

Daily Weather History Graph

Daily Weather History Graph

Search for Another Location

Airport or City:

Trip Planner

Search our weather history database for the weather conditions in past years. The results will help you decide how hot, cold, wet, or windy it might be!

Date:

Astronomy

Jan. 01, 2014 Rise Set
Actual Time 7:43 AM CST 5:30 PM CST
Civil Twilight 7:15 AM CST 5:59 PM CST
Nautical Twilight 6:43 AM CST 6:31 PM CST
Astronomical Twilight 6:12 AM CST 7:02 PM CST
Moon 7:37 AM CST (1/1) 6:14 PM CST (1/1)
Length of Visible Light 10h 43m
Length of Day
9h 46m
New Moon, 0% of the Moon is Illuminated
Jan 1
New Moon
Jan 7
First Quarter
Jan 15
Full
Jan 23
Last Quarter
Jan 30
New

Hourly Weather History & Observations

Time (CST) Temp. Windchill Dew Point Humidity Pressure Visibility Wind Dir Wind Speed Gust Speed Precip Events Conditions
12:15 AM 39.4 °F 31.8 °F 30.6 °F 71% 30.04 in 10.0 mi South 12.7 mph - N/A   Clear
12:35 AM 38.8 °F 31.2 °F 30.7 °F 73% 30.03 in 10.0 mi South 12.7 mph - N/A   Clear
12:55 AM 38.5 °F 30.3 °F 30.6 °F 73% 30.02 in 10.0 mi South 13.8 mph 19.6 mph N/A   Clear
1:15 AM 38.3 °F 30.1 °F 30.6 °F 74% 30.01 in 10.0 mi South 13.8 mph - N/A   Clear
1:35 AM 37.9 °F 30.0 °F 30.7 °F 75% 30.00 in 10.0 mi South 12.7 mph - N/A   Clear
1:55 AM 37.8 °F 29.4 °F 30.7 °F 76% 29.99 in 10.0 mi South 13.8 mph 18.4 mph N/A   Clear
2:15 AM 37.6 °F 28.8 °F 30.9 °F 77% 29.98 in 10.0 mi South 15.0 mph 19.6 mph N/A   Clear
2:35 AM 37.4 °F 28.9 °F 30.9 °F 77% 29.97 in 10.0 mi South 13.8 mph - N/A   Clear
2:55 AM 37.2 °F 29.6 °F 30.9 °F 78% 29.97 in 10.0 mi South 11.5 mph - N/A   Clear
3:15 AM 36.5 °F 29.7 °F 30.9 °F 80% 29.96 in 10.0 mi South 9.2 mph - N/A   Clear
3:35 AM 36.0 °F 30.3 °F 30.7 °F 81% 29.96 in 10.0 mi South 6.9 mph - N/A   Clear
3:55 AM 35.8 °F 29.4 °F 30.7 °F 82% 29.94 in 10.0 mi SSE 8.1 mph - N/A   Clear
4:15 AM 35.8 °F 28.8 °F 30.7 °F 82% 29.92 in 10.0 mi SSE 9.2 mph - N/A   Clear
4:35 AM 35.1 °F 28.6 °F 30.6 °F 84% 29.92 in 10.0 mi SSE 8.1 mph - N/A   Clear
4:55 AM 34.7 °F 28.1 °F 30.6 °F 85% 29.91 in 10.0 mi SSE 8.1 mph - N/A   Clear
5:15 AM 34.9 °F 29.0 °F 30.7 °F 85% 29.90 in 10.0 mi SSE 6.9 mph - N/A   Clear
5:35 AM 34.7 °F 28.8 °F 30.6 °F 85% 29.90 in 10.0 mi SSE 6.9 mph - N/A   Clear
5:55 AM 34.5 °F 27.3 °F 30.7 °F 86% 29.89 in 10.0 mi SSE 9.2 mph - N/A   Clear
6:15 AM 34.5 °F 26.2 °F 30.7 °F 86% 29.89 in 10.0 mi SSE 11.5 mph - N/A   Clear
6:35 AM 34.5 °F 26.2 °F 30.9 °F 87% 29.88 in 10.0 mi South 11.5 mph - N/A   Clear
6:55 AM 34.3 °F 26.5 °F 30.9 °F 87% 29.88 in 10.0 mi South 10.4 mph - N/A   Clear
7:15 AM 33.3 °F 30.2 °F 30.6 °F 90% 29.89 in 10.0 mi SSW 3.5 mph - N/A   Clear
7:35 AM 32.5 °F 28.1 °F 30.4 °F 92% 29.90 in 10.0 mi South 4.6 mph - N/A   Clear
7:55 AM 32.9 °F 26.7 °F 30.7 °F 92% 29.88 in 10.0 mi South 6.9 mph - N/A   Clear
8:15 AM 32.7 °F 29.6 °F 30.9 °F 93% 29.89 in 10.0 mi SSW 3.5 mph - N/A   Clear
8:35 AM 32.0 °F - 30.4 °F 94% 29.90 in 10.0 mi Calm Calm - N/A   Clear
8:55 AM 33.8 °F - 31.1 °F 90% 29.90 in 10.0 mi Calm Calm - N/A   Clear
9:15 AM 34.9 °F - 31.6 °F 88% 29.92 in 10.0 mi Calm Calm - N/A   Clear
9:35 AM 36.0 °F 33.3 °F 31.8 °F 85% 29.90 in 10.0 mi SE 3.5 mph - N/A   Clear
9:55 AM 37.4 °F 34.9 °F 32.0 °F 81% 29.90 in 10.0 mi SSE 3.5 mph - N/A   Clear
10:15 AM 38.5 °F - 32.2 °F 78% 29.91 in 10.0 mi Calm Calm - N/A   Clear
10:35 AM 39.9 °F 36.7 °F 32.7 °F 75% 29.91 in 10.0 mi SW 4.6 mph - N/A   Clear
10:55 AM 40.5 °F 38.4 °F 32.9 °F 74% 29.92 in 10.0 mi West 3.5 mph - N/A   Clear
11:15 AM 41.5 °F 37.8 °F 33.4 °F 73% 29.93 in 10.0 mi WNW 5.8 mph - N/A   Clear
11:35 AM 42.3 °F 38.6 °F 33.6 °F 71% 29.92 in 10.0 mi NNW 5.8 mph - N/A   Clear
11:55 AM 42.6 °F 39.0 °F 33.6 °F 70% 29.91 in 10.0 mi North 5.8 mph - N/A   Clear
12:15 PM 43.3 °F 40.7 °F 33.8 °F 69% 29.91 in 10.0 mi NNW 4.6 mph - N/A   Clear
12:35 PM 45.1 °F 39.9 °F 34.3 °F 66% 29.90 in 10.0 mi North 10.4 mph - N/A   Clear
12:55 PM 43.9 °F 38.8 °F 33.8 °F 68% 29.91 in 10.0 mi North 9.2 mph - N/A   Clear
1:15 PM 45.1 °F 38.4 °F 34.7 °F 67% 29.92 in 10.0 mi North 15.0 mph 20.7 mph N/A   Clear
1:35 PM 44.2 °F 36.7 °F 34.2 °F 68% 29.92 in 10.0 mi North 17.3 mph - N/A   Clear
1:55 PM 44.6 °F 38.8 °F 34.5 °F 68% 29.94 in 10.0 mi NNW 11.5 mph 20.7 mph N/A   Clear
2:15 PM 43.5 °F 36.1 °F 34.2 °F 70% 29.95 in 10.0 mi NNW 16.1 mph - N/A   Scattered Clouds
2:35 PM 41.0 °F 30.2 °F 32.7 °F 72% 29.96 in 10.0 mi North 27.6 mph 32.2 mph N/A   Clear
2:55 PM 36.0 °F 23.9 °F 29.7 °F 78% 29.98 in 10.0 mi North 25.3 mph 29.9 mph N/A   Clear
3:15 PM 33.8 °F 22.5 °F 28.2 °F 80% 30.01 in 10.0 mi NNW 19.6 mph 24.2 mph N/A   Mostly Cloudy
3:35 PM 32.7 °F 20.4 °F 27.5 °F 81% 30.03 in 10.0 mi NNW 21.9 mph 26.5 mph N/A   Overcast
3:55 PM 31.5 °F 19.8 °F 25.7 °F 79% 30.05 in 10.0 mi NNW 18.4 mph 28.8 mph N/A   Overcast
4:15 PM 31.1 °F 18.6 °F 25.0 °F 78% 30.07 in 10.0 mi NNW 20.7 mph 29.9 mph N/A   Mostly Cloudy
4:35 PM 30.9 °F 17.8 °F 24.4 °F 77% 30.09 in 10.0 mi NNW 23.0 mph 28.8 mph N/A   Scattered Clouds
4:55 PM 30.4 °F 17.7 °F 23.7 °F 76% 30.10 in 10.0 mi North 20.7 mph 28.8 mph N/A   Clear
5:15 PM 29.3 °F 15.6 °F 22.8 °F 77% 30.12 in 10.0 mi North 23.0 mph 28.8 mph N/A   Mostly Cloudy
5:35 PM 29.1 °F 15.4 °F 22.1 °F 75% 30.14 in 10.0 mi NNW 23.0 mph 26.5 mph N/A   Overcast
5:55 PM 28.4 °F 15.1 °F 21.0 °F 74% 30.14 in 10.0 mi NNW 20.7 mph 28.8 mph N/A   Overcast
6:15 PM 28.0 °F 15.7 °F 20.5 °F 73% 30.18 in 10.0 mi NNW 17.3 mph 32.2 mph N/A   Overcast
6:35 PM 27.5 °F 13.5 °F 19.9 °F 73% 30.19 in 10.0 mi North 21.9 mph 25.3 mph N/A   Overcast
6:55 PM 27.0 °F 12.2 °F 19.0 °F 72% 30.21 in 10.0 mi NNW 24.2 mph 32.2 mph N/A   Overcast
7:15 PM 25.9 °F 9.6 °F 18.5 °F 74% 30.22 in 10.0 mi NNW 28.8 mph 34.5 mph N/A   Overcast
7:35 PM 25.3 °F 10.7 °F 18.5 °F 75% 30.23 in 10.0 mi NNW 21.9 mph 29.9 mph N/A   Overcast
7:55 PM 23.9 °F 7.8 °F 18.3 °F 79% 30.25 in 10.0 mi NNW 25.3 mph 33.4 mph N/A   Mostly Cloudy
8:15 PM 23.5 °F 7.6 °F 18.7 °F 82% 30.26 in 10.0 mi NNW 24.2 mph 29.9 mph N/A   Mostly Cloudy
8:35 PM 23.0 °F 8.0 °F 19.4 °F 86% 30.28 in 10.0 mi NNW 20.7 mph 29.9 mph N/A   Overcast
8:55 PM 21.7 °F 5.9 °F 18.5 °F 87% 30.29 in 10.0 mi NNW 21.9 mph 31.1 mph N/A   Mostly Cloudy
9:15 PM 20.8 °F 3.7 °F 17.6 °F 87% 30.30 in 10.0 mi NNW 25.3 mph 34.5 mph N/A   Mostly Cloudy
9:35 PM 20.8 °F 5.1 °F 18.0 °F 89% 30.30 in 10.0 mi NNW 20.7 mph 26.5 mph N/A   Scattered Clouds
9:55 PM 20.3 °F 5.2 °F 17.6 °F 89% 30.31 in 10.0 mi NNW 18.4 mph 31.1 mph N/A   Scattered Clouds
10:15 PM 20.3 °F 4.0 °F 17.6 °F 89% 30.31 in 10.0 mi NNW 21.9 mph 27.6 mph N/A   Clear
10:35 PM 19.8 °F 2.9 °F 16.7 °F 88% 30.31 in 10.0 mi North 23.0 mph 33.4 mph N/A   Clear
10:55 PM 19.9 °F 4.3 °F 16.5 °F 87% 30.32 in 10.0 mi NNW 19.6 mph 28.8 mph N/A   Clear
11:15 PM 19.9 °F 4.8 °F 16.5 °F 87% 30.33 in 10.0 mi NNW 18.4 mph 27.6 mph N/A   Clear
11:35 PM 19.8 °F 4.1 °F 16.3 °F 87% 30.33 in 10.0 mi NNW 19.6 mph 25.3 mph N/A   Clear
11:55 PM 19.4 °F 5.5 °F 15.8 °F 86% 30.34 in 10.0 mi NNW 15.0 mph 23.0 mph N/A   Clear